Weather in Wolfsburg

Germany     52°25′40″N   10°47′09″E
temp.,
°C
wind,
m/s
gust,
m/s
humid.,
%
clouds,
%
prec.,
mm/h
press.,
hPa
HPBL,
m
8 december, wed
wed801:00+1se61487100 0.0 1003512
04:00+1se71681100 0.0 1001620
07:000se51396100 1.6 1001502
10:00+2se5989100 0.5 1002393
13:00+3se4787100 0.5 1002270
16:00+2ese3690100 0.0 1002172
19:00+1ese3790100 0.0 1003236
22:00+1ese3798100 0.0 1004302
9 december, thu
thu901:00+1ese2599100 0.4 1004179
04:00−1e3593100 2.1 1004294
07:00−1ese2595100 2.3 1005252
10:00−1se3493100 0.0 1006243
13:00+1ese1186100 0.0 1005286
16:00+1se1293100 0.0 100484
19:00−2sse2398100 0.0 100545
22:00−1s1296100 0.0 100451
10 december, fri
fri1001:00+1s2792100 0.0 1003241
04:00+1ssw2698100 0.0 1001240
07:00+1sse2498100 0.0 1000178
10:00+2ese2394100 0.0 999130
13:00+3ese238835 0.0 998278
16:000e23977 0.0 99852
19:00−1ese25955 0.0 100086
22:00−2ese24955 0.0 100175
11 december, sat
sat1101:00−2e229567 0.0 100441
04:00−2ene1195100 0.0 100613
07:00−2nnw119614 0.0 101013
10:000nw24905 0.0 1013151
13:00+3wnw358198 0.0 1015672
16:00+2sw368490 0.0 1017183
19:00+2sw5118795 0.0 1019402
22:00+2wsw51384100 0.0 1020481
12 december, sun
sun1201:00+2wsw51387100 0.0 1022627
04:00+2wsw41191100 0.0 1023432
07:00+1wsw41095100 0.0 1024334
10:00+2sw4108780 0.0 1024350
13:00+4sw498199 0.0 1024449
16:00+3ssw2689100 0.1 1023198
19:00+3ssw2796100 1.4 1023272
22:00+3ssw3995100 0.2 1023335